Location: Bemmer
(51.5498°N, 5.6249°E)
Time: 17:49:40
(UTC+00:00)

USA 307 - Pass Details

Date: 03 March 2021
Orbit: 567 x 577 km, 54.0° (Epoch: 13 April)

Event Time Altitude Azimuth Distance (km) Brightness Sun altitude
Rises 19:55:57 0° 285° (WNW) 2,785 7.8 -24.4°
Reaches altitude 10° 19:58:13 10° 287° (WNW) 1,884 6.6 -24.7°
Enters shadow 20:02:01 63° 326° (NW) 644 3.2 -25.3°
